Location: New Frontier Mobile Home Park
(32.8448°N, 116.9675°W)
Time: 22:45:57
(UTC+00:00)

Cosmos 1980 - Pass Details

Date: 14 July 2020
Orbit: 839 x 847 km, 71.0° (Epoch: 05 August)

Event Time Altitude Azimuth Distance (km) Brightness Sun altitude
Rises 04:20:58 0° 201° (SSW) 3,376 6.7 -15.5°
Reaches altitude 10° 04:23:24 10° 203° (SSW) 2,444 5.9 -15.9°
Maximum altitude 04:29:01 81° 290° (WNW) 852 3.8 -16.8°
Drops below altitude 10° 04:34:40 10° 18° (NNE) 2,459 6.4 -17.7°
Sets 04:37:08 0° 20° (NNE) 3,397 7.1 -18.1°
